RH
24 23 22 21 19 18 16 15 14 13 13 13 13 14 15 15 16 17 17 18 20 23 26 29 32 36 43 52 61 65 63 58 53 48 46 48 55 62 61 58 56 55 55 57 59 59 58 58 55 50 47 46 48 52 58 65 73 78 77 72 72 83 98 107 110 108 105 99 95 97 101 105 107 106 103 102 102 102 100 101 99 97 96 91 87
22 20 18 17 15 14 13 12 12 11 10 10 10 10 11 12 13 14 15 15 16 18 20 23 26 29 33 39 49 59 67 69 64 57 51 48 50 57 63 64 63 61 61 61 63 65 66 67 67 62 55 50 49 51 52 54 55 57 57 57 56 60 69 82 93 100 103 106 104 100 99 100 103 106 107 105 102 101 100 101 100 100 99 95 90
17 16 15 14 13 13 12 12 11 11 11 10 9 9 9 10 11 12 13 14 15 16 17 19 22 25 27 30 35 45 57 68 74 70 62 55 50 50 55 62 67 69 68 67 69 72 73 75 76 75 71 62 56 55 56 57 57 56 53 50 49 49 50 53 61 72 81 88 92 94 97 100 103 103 105 107 106 102 101 101 101 101 101 99 96
14 14 13 13 12 11 11 10 10 9 9 9 9 8 8 8 9 9 11 12 13 14 15 16 18 21 25 26 28 33 41 54 67 77 77 70 60 53 50 52 60 69 74 74 75 79 82 84 84 86 87 80 69 63 63 63 61 60 58 54 50 48 47 45 46 50 55 60 66 72 77 90 104 106 104 108 109 106 103 102 103 103 102 102 101
12 12 11 11 10 9 9 8 7 7 7 7 7 7 7 7 7 8 8 9 10 12 13 14 15 16 20 24 26 28 31 39 51 65 77 82 77 67 58 52 52 59 68 76 80 83 87 90 93 97 100 97 86 76 71 69 67 65 65 63 59 54 51 49 45 44 45 46 49 50 52 64 86 102 110 109 105 103 103 104 106 105 103 104 104
10 10 9 9 9 8 7 7 6 6 5 5 4 5 5 5 6 6 6 7 8 9 10 12 13 14 15 18 22 26 28 31 37 48 62 76 84 82 73 64 57 55 59 68 75 81 86 90 97 104 107 105 99 93 88 83 76 71 70 71 69 64 59 55 51 47 45 44 44 45 45 47 58 76 95 104 105 104 103 104 106 105 105 105 106
10 10 9 9 8 8 7 7 6 5 5 5 4 4 4 4 4 4 4 5 5 6 7 9 10 11 13 14 16 21 25 28 31 36 45 58 72 83 85 79 71 65 61 63 67 72 78 85 92 100 107 109 105 101 103 103 94 81 74 75 77 74 67 62 59 55 49 45 44 45 46 46 47 51 62 79 96 105 107 106 103 103 105 106 105
11 11 10 9 9 8 7 6 6 5 5 5 5 4 4 4 4 4 4 4 4 4 5 6 7 8 10 12 13 15 19 24 27 31 35 43 54 68 80 86 85 79 73 69 67 66 69 77 84 90 97 105 107 105 106 109 107 99 86 81 83 83 79 74 68 63 59 54 49 46 46 47 48 48 47 53 67 84 99 105 105 102 103 105 103
11 11 10 10 9 7 7 6 5 5 4 4 5 5 5 5 4 4 4 4 4 4 4 4 5 6 7 8 10 11 13 17 22 27 30 35 42 51 63 77 87 89 86 80 77 72 66 68 76 83 89 97 103 104 105 106 108 110 102 94 91 89 87 87 81 73 69 67 63 54 49 47 47 48 49 49 50 59 74 89 102 106 104 103 101
10 10 9 9 8 7 6 5 5 5 4 5 4 5 5 4 5 4 4 4 4 5 5 5 4 4 5 6 7 8 9 12 16 21 26 29 35 41 48 59 73 86 93 92 88 83 76 70 70 77 84 91 96 97 99 103 105 108 108 104 101 97 95 95 94 88 80 78 75 68 58 51 49 48 49 51 51 53 58 67 82 94 103 106 102
10 9 8 8 8 7 7 6 6 5 5 5 4 4 4 4 4 4 4 3 4 4 4 5 6 5 5 5 6 7 7 8 10 14 19 24 29 34 40 47 56 70 86 97 98 93 86 82 78 77 80 87 94 92 88 93 99 103 107 106 103 104 104 102 101 100 96 89 84 79 71 60 56 53 52 52 51 54 57 59 63 71 85 98 102
9 8 8 8 8 8 8 7 7 6 5 5 4 4 4 4 4 4 4 3 3 3 4 4 5 5 6 5 5 6 7 7 8 9 12 17 23 28 33 39 46 54 67 84 98 103 98 91 87 86 84 85 92 94 85 81 87 96 104 105 103 105 105 104 105 105 104 101 95 90 84 74 65 60 58 57 55 54 56 59 60 60 65 78 92
8 8 8 8 8 8 8 8 8 7 6 5 4 4 4 3 3 3 3 3 3 3 3 3 4 4 5 5 5 6 6 7 7 8 8 10 15 21 27 32 38 44 52 64 80 97 105 104 97 94 92 88 90 97 93 80 74 83 95 101 103 106 105 105 108 105 102 104 101 98 95 86 75 67 64 62 61 59 59 60 60 61 61 65 74
8 8 8 8 9 9 9 8 7 6 6 5 4 4 3 3 3 3 3 3 3 3 3 3 3 4 4 4 5 5 6 7 7 7 7 8 9 13 19 25 30 36 43 51 61 76 92 104 106 104 102 95 89 93 98 93 79 73 81 93 104 109 106 106 107 103 101 104 102 101 100 92 81 74 71 69 68 64 63 64 63 62 63 64 67
9 8 8 8 8 9 8 7 7 6 5 5 4 4 3 3 3 3 3 3 3 3 3 3 2 3 3 3 4 4 5 6 6 7 7 8 8 9 11 15 21 28 33 41 49 59 72 86 99 109 110 105 97 92 94 97 92 80 74 83 101 110 106 104 104 104 105 103 100 103 104 96 87 80 75 77 79 74 67 66 66 66 64 64 67
9 7 7 7 7 7 7 6 6 5 5 4 4 4 3 3 3 3 3 3 3 3 3 3 3 3 3 3 3 3 4 5 5 6 7 7 8 8 9 9 13 18 24 31 38 46 56 66 80 96 105 109 108 100 93 93 94 87 77 77 93 107 108 104 104 107 107 101 99 103 105 101 96 88 79 77 86 90 81 71 67 66 67 68 68
8 7 7 7 6 6 6 6 5 5 5 5 4 4 3 3 3 3 3 2 3 3 3 3 3 3 3 3 3 3 3 4 4 5 5 7 7 8 8 8 9 11 15 21 28 35 43 50 60 74 88 99 107 106 102 97 92 84 76 75 84 98 108 106 103 105 105 102 102 103 104 104 100 95 87 80 84 96 97 87 76 68 67 70 72
9 8 8 7 6 6 5 5 5 5 5 4 4 4 3 3 3 3 3 3 3 3 3 3 3 3 3 3 3 3 3 3 4 4 4 5 6 7 8 8 9 9 10 13 18 25 32 38 45 55 67 80 92 100 104 105 102 90 77 73 77 87 99 105 105 105 103 103 104 102 103 105 103 99 96 90 87 94 99 96 88 81 73 71 73
10 10 9 8 6 6 5 5 5 4 4 4 4 4 4 3 3 3 3 3 3 3 3 3 3 3 3 3 3 3 3 3 3 4 4 4 5 5 6 8 8 9 9 9 11 15 20 27 33 40 48 59 71 83 93 101 110 105 88 78 77 79 84 91 100 106 106 106 105 102 103 106 104 103 104 99 94 95 98 96 92 90 85 78 76
12 11 10 9 7 6 5 5 5 4 4 4 4 3 4 4 3 4 4 3 3 3 3 3 3 3 3 3 3 3 3 3 3 3 3 4 4 4 5 6 7 8 9 9 9 10 12 16 22 28 35 42 52 62 73 83 96 103 99 91 87 85 80 77 82 94 105 110 106 101 105 107 103 104 107 105 100 99 100 98 94 91 89 86 82
13 13 12 10 8 7 6 5 5 4 4 4 4 3 3 4 3 4 4 4 4 4 3 3 3 3 3 3 3 3 3 3 3 3 3 3 4 4 4 5 5 6 7 8 10 10 10 11 13 18 24 30 37 45 53 62 73 85 92 93 93 95 91 81 75 77 90 105 107 103 104 103 103 106 106 103 103 105 103 101 98 92 88 86 84
14 14 13 11 10 8 7 6 5 4 4 3 3 4 3 3 4 4 4 4 4 4 4 4 3 3 4 4 4 3 3 3 3 3 3 4 4 4 4 5 4 5 6 7 8 9 10 11 11 12 15 20 26 32 38 45 54 64 74 80 86 93 95 91 85 78 77 88 101 107 106 102 103 106 103 100 102 104 103 104 104 99 93 90 86
16 15 14 12 11 10 8 7 5 4 4 4 4 4 3 4 4 4 4 4 4 4 4 4 4 4 3 4 4 4 4 4 3 4 3 3 4 4 4 5 5 5 5 5 6 8 9 10 11 11 12 14 17 22 27 32 39 47 56 65 72 79 86 87 87 85 80 79 86 96 105 106 106 104 101 101 102 100 101 103 105 105 103 100 94
16 14 14 12 11 11 9 7 6 4 4 4 4 4 4 4 4 4 4 4 4 4 4 4 4 4 4 3 4 4 4 4 4 4 4 4 4 4 4 4 5 5 5 5 5 6 7 8 9 10 11 12 13 16 19 23 28 34 40 49 57 64 72 76 77 78 78 78 79 83 91 98 106 107 102 101 100 99 102 103 102 105 104 104 103
17 16 15 14 12 11 9 7 6 4 4 4 4 4 4 4 4 4 4 4 4 4 4 4 4 4 4 4 4 3 3 4 4 4 4 4 4 4 4 4 5 5 5 5 5 5 5 6 7 8 10 11 12 13 16 18 21 24 28 34 41 49 56 62 66 67 66 66 69 75 80 82 90 99 102 105 103 101 106 104 101 101 100 104 109
17 17 15 14 12 11 9 7 5 4 4 4 4 4 4 4 4 4 4 4 4 4 4 4 4 4 4 4 4 4 3 3 4 4 4 4 4 4 4 4 4 5 5 5 5 5 5 5 5 6 7 9 11 12 13 15 17 19 21 23 27 34 41 47 52 56 57 55 54 60 67 69 72 78 88 101 106 107 107 102 100 101 100 103 108
17 17 15 13 11 10 8 7 6 5 4 4 4 5 4 4 4 4 4 4 4 4 4 4 4 4 4 4 4 4 4 4 4 4 4 4 4 4 4 4 4 5 5 5 5 6 6 6 5 5 6 7 8 10 11 13 14 15 17 19 20 23 29 35 40 45 49 50 49 49 52 56 59 60 66 76 90 103 108 106 106 104 100 104 106
19 17 15 13 11 9 8 7 6 5 4 4 5 5 5 4 4 4 3 4 4 4 4 4 4 4 4 4 4 4 4 4 4 4 4 4 4 4 4 4 4 5 5 5 5 5 6 6 6 6 6 6 6 8 9 10 11 13 14 16 18 19 21 25 29 34 38 43 46 48 47 48 48 48 49 52 62 78 93 106 112 104 101 109 107
20 18 16 14 11 9 8 7 5 5 5 5 5 5 5 5 4 4 4 4 4 4 4 4 4 4 4 4 4 4 4 4 4 4 4 4 4 4 4 4 4 4 5 5 5 5 5 6 6 6 6 6 6 6 7 8 8 10 11 12 14 16 18 20 22 24 26 30 35 40 43 45 44 42 40 38 40 48 62 81 98 104 110 112 103
20 18 16 14 11 9 8 7 5 5 5 5 5 5 5 5 4 4 4 4 4 4 4 4 4 4 4 4 4 4 4 5 5 4 5 4 4 4 4 4 4 4 4 4 5 5 5 5 5 6 6 6 7 6 6 7 7 7 9 10 11 12 14 17 19 20 21 21 23 27 31 36 38 38 36 31 29 30 35 48 65 85 102 106 105
19 18 16 13 11 9 8 7 5 5 5 5 6 5 5 5 5 4 4 4 4 4 4 4 4 4 4 4 4 4 4 5 5 5 5 5 4 4 4 4 4 4 4 4 4 4 5 5 5 5 6 6 7 7 7 7 7 7 7 7 9 10 11 13 14 17 19 19 19 20 22 26 30 33 34 31 26 23 22 27 37 53 72 87 101
18 17 15 13 11 8 7 6 6 6 6 6 6 6 6 6 5 5 5 4 4 4 4 4 4 3 4 4 4 4 4 4 5 5 5 5 4 4 4 4 4 4 4 4 4 4 4 5 5 5 5 6 6 6 7 7 7 7 7 7 7 8 9 10 11 13 15 17 18 19 19 22 25 28 31 32 29 25 21 19 21 29 42 57 74
16 15 14 12 10 9 7 7 6 6 6 6 6 6 6 6 5 5 5 5 4 4 4 4 4 4 4 4 4 4 4 4 4 4 4 4 4 4 4 4 4 4 4 4 4 4 4 4 5 5 5 5 6 6 6 6 7 7 7 7 7 7 7 8 9 10 11 12 14 15 16 18 21 25 29 32 32 30 27 23 19 20 24 33 44
15 14 12 11 9 9 8 7 6 6 6 6 6 6 6 5 5 5 5 5 5 5 5 4 4 4 4 4 4 4 5 5 4 4 4 4 4 4 4 4 4 4 4 4 4 4 4 4 4 5 5 5 5 5 5 5 6 7 7 6 6 7 8 8 8 9 9 10 10 11 12 13 15 18 23 28 32 33 31 28 24 21 20 22 27
15 13 12 11 9 9 8 7 7 6 6 6 6 6 6 5 5 5 5 5 5 5 5 5 4 4 4 4 4 4 4 4 4 4 4 4 4 4 4 4 4 4 4 4 4 4 4 4 4 4 5 5 4 4 5 5 5 6 6 6 6 6 7 8 9 9 9 9 9 9 9 9 10 12 14 19 25 30 31 30 27 26 23 21 21
15 13 12 11 9 9 7 7 7 7 6 7 6 6 6 5 6 5 5 5 5 4 5 4 4 4 4 4 4 4 4 4 4 4 4 4 4 4 4 4 4 4 4 4 4 4 4 5 4 4 4 4 5 4 4 5 5 5 5 5 6 6 6 7 8 9 9 9 9 9 9 9 9 9 10 11 14 20 25 27 27 27 26 25 22
15 12 11 10 8 8 7 7 7 7 6 7 6 6 6 5 6 5 5 5 5 4 5 4 4 4 4 4 4 5 5 4 4 4 4 4 4 4 4 4 5 5 5 4 5 5 5 5 4 5 5 4 5 4 4 5 4 4 5 4 5 5 6 6 7 8 9 9 9 9 9 9 9 9 9 9 10 11 15 18 21 24 26 26 24
14 11 10 9 7 7 7 7 7 7 7 7 6 6 6 6 6 5 5 5 5 5 5 4 4 4 4 4 4 5 5 4 4 4 4 4 4 4 4 4 5 5 5 5 5 5 5 5 5 4 5 5 5 4 4 5 4 4 4 4 5 5 5 5 6 6 7 8 9 9 8 9 9 9 10 10 9 9 10 11 13 16 19 22 24
12 10 9 8 7 7 7 7 7 7 7 6 6 6 6 6 6 5 5 5 5 5 5 4 5 4 4 5 5 4 5 4 4 4 4 4 4 4 4 5 5 5 5 5 5 5 5 5 4 5 5 5 5 5 5 5 4 4 4 4 4 5 5 5 5 5 6 6 7 8 8 8 9 9 10 10 10 10 9 8 9 10 13 16 20
11 9 9 8 8 8 7 7 7 7 7 6 6 6 6 6 6 5 5 5 5 5 5 4 4 5 4 5 4 4 5 4 4 4 4 4 4 4 4 4 4 5 5 5 5 5 5 5 4 5 5 5 5 5 5 5 5 4 4 4 4 5 5 5 5 5 5 5 5 6 7 7 8 9 9 10 10 10 9 8 8 8 10 12 15
11 9 9 7 8 8 7 8 7 6 7 6 6 6 6 6 6 5 5 5 5 5 5 4 4 5 4 5 5 4 5 4 4 4 4 4 4 4 4 4 4 4 5 5 5 5 5 5 4 5 5 5 5 5 5 5 5 5 4 4 4 5 5 5 5 5 5 5 5 5 5 6 6 7 8 9 9 9 9 9 8 8 9 10 11
10 9 8 7 8 8 7 7 7 6 6 6 6 6 6 5 6 5 5 5 5 5 4 4 4 5 4 5 5 5 5 4 4 4 4 4 4 4 4 4 4 4 4 4 5 5 5 5 4 5 5 5 5 6 5 5 5 5 5 5 5 5 5 5 5 5 5 5 5 5 5 5 5 6 7 7 8 8 8 8 8 8 9 9 10
10 8 8 7 8 8 7 7 7 6 6 6 5 6 6 5 5 5 5 5 5 4 4 4 4 5 5 5 5 5 5 4 4 4 4 4 4 4 4 4 4 4 4 4 5 5 5 5 4 4 5 5 5 5 5 5 5 5 5 5 5 6 6 5 5 5 4 4 4 5 5 5 5 5 5 6 7 7 7 7 8 9 10 10 10
9 8 8 8 8 8 8 7 6 6 6 6 6 6 6 6 5 5 5 5 5 5 4 4 5 5 5 5 5 5 5 5 4 4 4 4 4 4 4 4 4 4 4 4 5 5 4 4 4 4 4 5 5 5 5 5 5 5 5 5 5 6 6 6 5 5 4 4 4 4 4 5 5 5 5 5 6 6 6 6 7 8 10 11 11
8 7 7 8 8 8 8 7 6 6 6 6 6 6 6 6 5 5 5 5 5 5 4 4 5 5 5 5 5 5 5 5 5 5 4 4 4 4 4 4 4 5 5 5 5 5 5 5 4 5 5 5 4 4 5 5 5 5 5 5 6 6 6 6 6 5 5 4 4 4 4 4 5 5 5 5 5 6 6 6 6 7 9 11 12
8 7 8 8 8 8 8 7 6 6 6 6 6 6 6 6 5 5 5 5 5 5 5 5 5 5 5 5 5 5 5 5 5 5 5 5 4 4 4 4 4 5 5 5 5 5 5 5 5 5 5 5 4 4 4 5 5 5 5 5 5 6 6 6 6 6 5 5 4 4 4 4 5 5 6 6 6 6 6 6 6 6 7 9 11
8 7 8 8 8 8 7 7 7 6 6 6 6 5 6 6 5 5 5 5 5 5 5 6 5 5 5 5 5 5 5 5 5 5 5 5 5 5 4 4 5 5 5 5 5 5 5 5 5 5 5 5 5 4 5 5 4 4 4 4 5 5 5 6 6 6 6 5 5 5 5 4 5 5 5 6 6 6 6 6 6 6 6 7 9
8 7 8 8 8 8 7 7 7 6 6 6 6 6 6 5 5 5 5 6 6 6 6 6 6 6 5 5 5 5 4 5 5 5 5 5 5 5 5 4 5 5 5 5 5 5 5 5 5 5 5 5 5 5 5 5 4 4 4 4 4 5 5 5 6 6 6 5 5 5 5 4 5 5 5 5 6 6 6 6 6 6 6 6 7
7 8 8 8 7 8 7 7 7 6 6 6 5 5 6 5 5 6 5 6 6 6 6 6 6 6 5 5 5 5 4 5 4 4 5 5 5 5 5 4 5 4 4 5 5 5 5 5 5 5 5 5 5 5 5 5 5 5 5 4 4 4 4 5 5 5 6 5 5 5 5 5 5 5 5 5 5 6 6 6 6 6 6 6 6
8 8 8 7 7 7 7 7 7 6 6 6 5 6 6 5 5 6 6 6 7 6 6 6 5 6 5 4 4 4 4 5 5 4 4 5 5 5 5 4 5 5 4 5 5 5 5 5 5 5 5 5 5 5 5 5 5 5 5 4 4 4 4 5 5 5 5 5 5 5 5 5 5 5 5 5 5 5 6 6 6 6 6 6 6
8 8 8 7 7 7 7 7 7 6 6 6 6 6 6 6 6 6 6 6 6 6 6 5 5 5 5 4 4 4 4 4 4 4 4 4 4 5 5 5 5 4 5 5 4 4 5 5 5 5 5 5 5 5 5 5 5 5 5 4 4 4 5 5 5 5 5 5 5 5 5 5 5 5 5 5 5 5 5 5 5 6 6 6 6
Wind_Speed
112 111 111 110 110 109 108 107 106 105 103 102 101 101 100 100 100 100 99 99 98 98 98 97 97 97 96 96 97 97 97 96 95 95 95 96 97 98 98 98 98 99 100 101 102 103 104 106 109 111 112 113 114 115 118 121 124 127 127 124 122 120 120 120 120 120 119 117 115 114 113 113 112 111 110 108 106 105 103 102 102 101 100 99 96
110 110 109 109 108 108 107 106 105 104 103 102 100 99 98 98 98 98 98 98 98 98 98 98 99 99 99 99 99 100 100 99 99 97 97 97 98 99 100 100 100 101 102 102 103 105 105 106 108 110 112 113 113 113 114 116 119 122 124 124 122 120 121 122 123 124 123 122 121 119 117 116 115 114 113 111 110 108 107 105 104 104 103 101 99
108 108 107 107 106 105 105 104 104 103 102 102 101 99 98 97 96 97 97 97 98 98 98 98 99 99 100 101 101 102 102 102 102 101 100 99 99 100 101 102 102 102 103 104 105 106 107 107 108 109 111 113 113 114 115 115 117 118 120 121 120 119 119 120 121 123 124 124 123 122 119 118 116 115 114 113 112 112 111 109 108 107 105 104 102
106 106 105 105 104 103 103 102 101 100 100 99 99 98 97 96 95 95 96 96 97 98 98 98 98 99 100 102 103 104 104 104 104 104 104 103 101 101 102 103 103 104 104 105 106 107 108 108 109 109 110 112 114 115 116 117 117 118 119 119 119 118 117 117 118 119 121 122 122 121 120 119 118 117 116 115 114 114 114 113 111 110 108 106 105
102 102 102 102 102 101 101 100 99 98 97 96 96 95 95 95 94 94 94 95 95 97 98 99 99 99 100 101 103 104 106 106 107 107 107 106 105 104 104 104 104 105 106 106 107 108 109 109 109 110 111 113 114 114 115 117 119 119 119 118 118 117 116 116 117 117 117 118 119 119 118 117 118 119 119 119 117 116 115 114 113 112 110 108 106
99 99 100 100 100 100 99 99 98 97 96 95 93 92 93 93 93 93 93 94 95 96 97 98 99 100 100 101 102 104 106 107 108 109 109 109 109 109 108 107 106 106 107 108 108 109 109 110 110 110 112 114 115 114 114 117 119 120 120 119 119 119 118 117 116 116 116 115 115 115 115 115 116 118 120 120 119 118 117 115 114 113 111 110 108
99 99 99 99 99 99 99 99 98 97 96 96 94 93 92 92 92 92 93 93 93 94 96 98 99 100 101 101 102 103 105 107 109 110 111 112 112 112 112 111 110 109 109 109 110 110 110 110 111 112 112 114 115 115 114 116 119 120 120 120 120 120 120 118 117 116 116 114 113 113 113 113 114 116 117 119 120 120 120 119 117 115 114 112 111
99 99 99 99 99 99 99 98 98 97 96 95 94 93 93 92 92 92 92 93 93 93 94 96 98 100 101 102 103 103 104 107 109 110 112 113 114 115 114 114 113 112 112 111 112 113 112 112 112 113 113 114 116 116 116 117 119 120 121 121 121 121 121 119 119 118 116 114 113 113 112 112 112 113 114 115 117 118 120 120 119 118 116 115 113
99 98 99 99 99 98 98 97 96 95 94 92 91 90 90 91 91 91 91 92 92 92 93 94 96 98 100 102 104 104 104 106 108 110 112 113 115 117 117 117 116 116 116 115 115 115 115 114 114 114 114 115 117 117 117 117 118 120 121 121 122 122 122 121 121 120 117 115 115 114 113 112 111 110 110 111 112 114 116 119 120 121 120 118 116
97 97 96 96 96 96 96 95 94 93 91 90 88 87 87 87 88 88 88 88 89 90 92 94 95 96 97 100 103 105 106 106 108 110 112 113 115 117 119 119 119 119 119 119 118 118 117 116 116 116 116 116 118 119 118 118 118 119 121 122 122 122 122 122 122 121 120 118 117 116 115 113 111 109 108 108 109 110 113 115 118 120 121 121 120
95 94 93 93 93 93 93 93 92 91 90 88 86 85 85 85 85 86 86 86 85 86 88 91 94 95 96 97 100 104 106 108 109 110 112 113 115 117 119 120 121 121 121 121 122 122 121 119 118 118 118 118 120 121 121 119 119 119 120 122 123 123 123 123 123 123 122 121 120 118 117 115 113 110 108 108 108 108 110 112 115 117 119 120 121
93 92 91 90 90 90 91 91 90 90 90 88 87 85 83 83 83 84 85 85 84 84 85 88 91 94 95 96 98 101 104 107 109 111 112 114 115 117 119 121 122 123 123 124 124 125 125 123 121 120 121 121 122 123 123 122 120 120 120 121 122 123 123 124 124 124 124 124 122 120 119 118 116 113 110 109 108 107 108 109 112 114 115 117 120
91 89 88 87 87 87 88 89 89 89 89 88 87 85 83 82 81 82 83 84 84 84 84 85 88 91 94 95 97 98 101 104 108 110 112 113 115 117 119 120 122 123 124 125 126 127 128 127 125 124 124 124 124 125 126 125 123 121 121 121 121 122 123 124 125 125 125 125 124 123 121 120 118 115 113 111 109 108 108 108 109 110 111 114 117
89 88 86 85 84 84 85 85 85 85 85 85 85 84 82 81 80 80 80 81 83 84 84 84 86 88 91 93 95 97 99 101 105 108 111 113 115 117 119 120 122 124 125 126 127 129 130 130 129 128 128 128 128 127 128 128 126 124 123 121 121 122 123 124 125 125 126 126 125 124 124 123 121 119 115 113 111 110 109 108 108 109 109 111 113
87 86 84 83 81 81 81 81 81 81 81 81 80 80 79 78 78 78 78 79 80 82 84 84 84 86 88 90 92 95 97 99 102 105 108 111 114 116 118 120 122 124 125 127 128 129 131 132 132 132 132 132 131 130 130 130 130 128 126 123 122 124 125 125 126 126 127 126 126 125 126 125 124 122 119 115 113 112 112 111 110 109 108 108 110
86 85 83 81 79 78 78 77 77 76 76 76 76 76 76 75 75 75 76 76 77 78 80 82 83 84 86 88 89 91 94 97 99 102 105 108 111 114 117 119 121 123 125 127 129 130 132 133 134 135 135 135 135 134 133 133 133 132 129 126 124 125 126 126 127 127 128 127 126 126 126 127 126 125 123 119 115 114 114 114 112 111 109 108 108
84 83 82 80 78 77 76 75 75 74 73 73 73 73 72 72 72 72 73 74 75 76 77 79 81 82 84 85 87 88 91 93 96 99 102 104 108 111 115 118 120 123 125 126 128 130 132 133 135 136 138 138 138 138 137 136 136 136 133 129 127 128 128 128 128 128 129 129 127 127 127 128 128 127 126 123 119 117 116 116 115 113 111 109 108
83 82 81 79 77 76 75 74 74 73 72 71 70 70 70 69 69 70 70 71 72 74 75 77 78 80 82 83 85 87 88 90 93 96 99 102 105 108 112 115 118 121 123 125 128 130 132 133 135 136 138 139 140 140 140 140 140 139 137 133 131 131 131 131 130 129 129 130 129 128 128 129 129 129 128 126 123 121 120 118 117 116 114 112 110
83 82 80 79 77 75 74 73 72 72 71 71 70 68 68 68 67 67 68 69 70 71 72 74 76 78 80 81 83 85 87 88 90 92 96 99 101 104 108 111 115 118 120 123 126 128 131 133 134 136 137 139 141 142 142 142 143 143 141 137 134 134 134 134 133 131 130 131 131 130 130 130 130 130 129 128 126 124 123 122 120 118 117 115 113
82 82 81 80 79 77 74 72 70 70 70 70 69 68 66 66 66 66 66 67 68 68 69 71 73 75 77 79 81 83 85 87 88 90 92 95 99 101 104 107 110 114 117 120 122 126 128 131 133 135 136 138 140 141 143 144 144 145 144 141 138 138 138 137 136 134 132 132 132 132 132 132 132 132 131 129 128 126 125 124 123 122 120 118 116
83 83 83 82 81 79 76 74 71 70 69 69 68 67 66 65 64 64 64 65 67 67 67 68 69 72 74 76 78 80 82 85 87 88 90 92 95 98 101 103 106 110 113 116 119 122 125 128 131 133 135 137 139 140 142 143 144 146 146 145 143 141 141 140 139 137 136 135 135 134 134 134 134 134 132 131 129 128 127 127 126 125 123 121 120
84 84 84 84 83 82 79 77 74 71 69 68 67 67 66 65 65 64 64 64 65 66 67 67 67 68 70 73 75 77 79 82 84 86 88 89 91 94 98 101 103 106 109 112 115 118 121 124 127 130 132 135 137 139 140 142 143 145 146 146 145 145 145 144 143 141 139 138 138 137 137 137 137 136 134 133 131 130 129 129 129 128 127 125 123
84 84 84 84 84 83 82 80 76 73 69 67 66 66 65 65 65 65 64 64 64 65 66 67 67 67 68 70 72 75 77 79 81 83 86 88 89 91 94 97 100 103 105 108 111 115 118 120 123 126 128 131 134 137 139 140 142 143 145 146 146 147 147 147 146 145 143 142 141 141 141 140 140 138 137 135 134 132 131 131 131 131 130 128 127
83 84 84 84 84 84 83 81 78 74 71 68 66 65 65 64 64 64 64 64 64 64 65 66 67 67 67 68 69 72 74 76 79 81 83 85 87 89 91 93 96 100 103 105 107 110 113 116 119 121 124 127 130 133 136 138 140 142 143 144 146 147 148 148 148 148 147 146 145 144 144 144 144 142 140 138 137 135 134 133 132 132 132 131 130
83 84 84 84 84 83 83 81 79 75 72 69 67 65 65 64 63 62 62 63 64 64 65 65 66 66 67 68 68 69 71 73 76 78 80 82 85 87 89 90 92 95 99 102 104 107 109 112 115 118 120 123 126 129 132 135 138 140 141 143 144 146 147 148 149 149 148 147 147 147 147 147 147 145 144 142 140 138 137 136 135 134 133 133 133
83 83 84 83 83 83 82 80 79 76 72 70 68 66 65 65 63 61 60 61 62 63 64 65 65 65 66 67 67 68 69 71 73 75 78 79 81 83 85 87 89 92 95 98 101 103 105 107 110 113 116 119 122 125 128 131 134 137 139 140 142 144 145 147 148 148 148 148 147 147 148 149 149 147 146 146 144 142 141 140 138 137 136 135 135
82 83 83 82 82 81 80 79 78 75 72 70 68 67 66 65 64 61 59 59 59 60 61 63 64 65 65 65 66 67 68 69 71 72 75 77 78 80 82 84 86 89 91 94 97 100 102 104 106 109 112 115 118 121 124 127 129 132 135 137 139 141 142 144 146 147 148 148 147 147 147 149 149 148 147 147 147 146 145 144 142 141 140 138 138
82 83 82 82 81 80 79 78 77 75 72 69 67 66 66 65 64 62 59 58 58 58 59 60 61 63 63 64 65 65 67 68 69 70 72 74 76 77 79 81 83 85 88 91 93 95 98 101 103 105 108 110 113 117 120 123 125 127 130 132 135 137 139 141 144 146 147 148 148 147 147 148 148 147 147 146 147 148 148 147 146 145 144 143 142
83 83 83 82 81 80 79 78 76 74 71 68 66 65 65 65 64 63 61 59 58 57 57 57 58 60 61 62 63 64 65 67 68 69 70 71 73 75 77 79 81 83 85 88 90 91 94 97 100 102 104 106 109 112 115 118 121 123 125 127 130 132 135 137 140 142 144 146 147 148 148 148 148 148 147 145 144 145 147 148 149 148 148 147 146
84 84 83 83 82 80 79 78 76 74 71 69 67 65 65 64 64 63 62 60 59 58 57 56 55 56 58 60 61 61 63 65 67 68 69 70 71 73 75 77 79 80 82 85 86 88 90 92 95 98 101 103 105 107 110 113 116 119 122 123 125 127 129 132 135 138 140 142 143 145 146 148 148 148 148 146 143 141 142 144 147 149 150 150 149
84 84 84 83 82 81 80 79 77 75 73 71 69 67 66 65 64 64 63 61 60 59 58 56 55 54 55 56 58 59 60 62 65 66 67 68 70 71 73 74 76 78 80 81 83 85 87 89 91 93 96 99 101 104 106 109 112 115 118 120 122 123 125 127 129 132 135 137 139 140 141 144 146 148 148 148 145 142 139 138 140 144 148 150 151
84 84 84 83 82 81 80 79 77 76 74 72 71 69 67 66 65 64 63 62 60 59 59 57 56 55 54 54 55 56 58 60 62 64 66 67 69 70 71 73 74 75 76 79 81 83 85 86 88 89 92 94 97 100 102 105 107 110 113 115 117 119 121 123 125 127 130 133 135 136 137 138 141 144 146 147 147 144 141 137 135 137 141 145 148
83 83 83 83 82 81 80 79 77 76 74 72 71 69 67 66 65 63 63 61 60 59 59 58 57 56 55 54 54 55 56 58 60 62 64 65 67 68 69 71 72 73 74 76 78 80 82 83 85 86 89 91 93 95 97 100 102 105 108 110 111 113 116 118 121 124 126 128 130 132 134 135 136 139 142 144 146 145 143 140 136 134 134 137 140
82 82 83 82 81 81 80 79 77 76 74 72 70 69 68 66 65 63 62 61 59 58 58 57 57 57 55 55 54 55 55 57 58 59 61 63 64 66 67 69 70 72 73 75 76 78 79 80 82 84 86 88 90 91 92 94 97 100 102 104 105 107 110 113 116 119 122 124 126 128 130 131 132 134 137 139 142 144 144 142 139 135 133 132 133
82 82 82 82 81 80 79 78 77 76 74 72 70 69 68 67 65 63 62 60 59 57 56 56 56 56 55 54 54 54 55 56 57 58 59 60 61 63 64 66 68 70 72 73 75 76 77 78 80 82 84 85 86 87 88 90 92 95 97 99 100 102 105 108 111 114 117 119 122 124 125 126 128 129 131 134 137 140 142 141 140 137 134 133 131
82 82 81 81 81 80 79 78 77 76 74 72 70 69 68 66 65 63 62 60 58 57 56 55 54 54 53 53 53 53 54 55 56 57 58 58 59 60 61 63 65 68 70 71 73 74 75 77 79 80 81 82 83 85 86 87 89 90 92 94 95 97 99 102 105 108 112 114 116 119 121 122 123 125 127 129 131 135 138 139 138 137 136 135 132
83 82 81 80 80 80 79 77 76 75 74 72 70 68 67 65 64 63 61 60 58 57 55 55 54 53 53 52 52 52 53 54 54 55 56 57 57 58 58 60 62 65 67 69 70 72 73 75 77 78 79 79 81 83 84 85 86 87 88 89 91 92 94 97 100 103 106 109 111 113 115 117 119 121 123 125 127 129 132 134 135 136 136 135 133
83 82 80 79 78 79 79 77 75 74 73 72 70 68 66 65 63 62 61 60 59 57 55 55 54 53 52 52 52 52 53 53 53 54 54 54 55 56 56 57 59 62 64 66 68 70 72 74 75 76 76 77 79 81 82 83 84 85 85 86 87 89 91 93 95 98 100 103 106 108 110 111 113 115 119 122 124 126 127 128 130 132 133 133 133
84 82 81 80 78 78 78 77 75 73 72 71 70 68 67 65 64 62 60 59 58 57 55 53 53 53 53 52 52 52 53 53 53 53 53 52 53 53 54 55 57 59 61 63 65 67 70 71 72 73 73 75 77 79 81 82 83 83 83 84 85 86 88 90 91 93 95 98 100 103 105 107 108 110 113 117 121 123 124 124 124 126 128 130 131
84 83 82 81 80 79 77 76 75 73 72 70 69 68 67 66 64 62 60 59 58 56 55 52 51 52 52 52 52 52 52 52 52 52 52 52 51 51 52 53 54 56 58 60 62 64 67 68 69 70 71 72 75 77 79 80 81 82 82 82 83 84 86 88 89 90 91 93 95 98 101 102 104 106 109 112 116 119 121 121 121 121 123 125 128
85 83 82 81 80 79 78 76 74 73 71 70 68 67 67 66 65 63 60 59 58 56 54 52 50 50 51 52 52 51 51 51 52 52 52 52 50 51 51 51 52 53 55 57 59 61 64 65 66 66 68 70 72 74 77 78 79 80 80 80 80 81 83 85 86 88 89 91 92 94 96 98 100 102 104 107 110 113 116 118 117 117 118 121 125
86 84 82 81 80 79 78 76 74 72 70 69 67 66 66 65 64 63 61 59 58 57 55 52 50 49 49 50 50 50 50 51 51 51 52 51 50 50 50 51 51 51 53 55 57 59 61 63 63 63 65 68 70 72 75 76 77 77 77 77 78 79 81 82 83 85 87 88 90 91 92 93 94 96 99 102 105 107 110 111 113 114 116 118 121
86 84 82 81 80 79 77 76 74 72 70 68 66 65 65 65 63 62 60 59 59 57 56 54 52 50 49 49 49 49 49 50 50 51 51 51 50 50 50 50 50 51 52 53 55 57 59 60 60 61 62 65 67 70 73 74 74 74 74 75 75 77 79 80 82 83 84 84 85 87 89 90 91 91 94 97 100 103 105 105 106 108 112 115 118
85 83 82 81 79 78 77 75 73 71 69 67 66 65 65 64 63 61 60 59 59 58 56 54 53 51 49 48 48 48 48 49 49 50 50 50 50 50 50 50 50 50 51 52 53 55 57 58 59 59 60 62 65 68 70 71 71 72 73 73 73 74 77 79 81 82 82 81 80 81 83 86 87 89 90 92 95 99 100 100 100 102 107 111 115
85 83 82 80 79 78 77 75 74 72 69 68 66 64 64 64 62 60 59 59 58 57 56 55 53 52 50 49 48 48 48 48 49 49 50 49 49 49 49 49 49 50 51 51 52 53 54 56 57 57 59 61 63 65 66 67 68 70 70 70 71 72 75 77 79 79 79 79 78 78 79 81 83 85 86 88 90 93 95 96 97 98 101 106 111
84 83 81 80 79 77 77 75 74 72 70 68 66 64 64 63 62 59 58 58 57 56 56 55 54 52 51 49 48 48 47 48 48 48 49 49 49 49 48 48 48 49 50 51 51 51 52 54 55 56 57 59 60 61 62 64 66 67 68 68 69 71 73 74 76 77 78 78 78 77 78 78 79 81 83 84 86 88 91 94 95 96 98 102 107
84 83 81 79 78 77 76 75 74 73 71 68 66 64 63 63 61 59 57 57 56 55 55 54 54 53 52 50 49 48 48 47 47 48 48 48 48 48 48 47 46 48 49 50 50 50 51 52 53 55 56 56 56 57 59 62 64 65 65 65 67 68 70 71 73 74 75 76 76 76 76 76 77 78 79 81 83 86 88 90 93 95 97 99 103
84 82 81 79 78 77 76 75 74 73 71 69 67 65 64 63 61 59 57 56 55 54 54 54 54 53 53 51 50 49 48 48 47 47 47 48 48 48 48 47 46 46 48 48 49 50 50 51 53 54 54 54 53 54 57 60 62 62 63 63 64 65 67 68 70 71 73 74 74 74 74 74 75 76 76 78 80 83 85 88 90 93 95 97 99
83 82 80 79 78 77 76 75 74 72 71 69 67 65 64 63 61 59 57 56 55 54 53 53 53 53 53 52 50 49 48 48 47 47 47 47 47 47 48 47 46 46 47 47 47 48 49 51 52 53 53 51 51 53 55 57 58 59 61 62 62 62 63 65 67 69 71 71 71 71 72 72 73 74 75 76 77 80 83 86 88 90 93 95 97
82 81 80 79 78 77 75 74 73 72 70 69 67 65 64 63 61 59 57 56 55 55 54 53 52 53 53 52 51 50 49 48 48 47 46 46 45 46 47 47 46 46 46 46 46 47 48 50 52 52 51 50 51 52 53 53 55 57 59 59 59 59 60 63 65 67 68 68 68 69 70 71 72 73 73 74 76 78 81 83 86 88 91 93 95
82 81 80 79 77 76 75 74 73 71 70 69 67 65 64 63 61 60 58 57 55 55 54 53 52 53 53 53 51 50 49 48 47 47 47 46 45 44 46 47 47 46 46 47 47 47 47 48 50 52 51 51 51 51 51 51 53 56 57 56 55 55 58 61 64 64 65 65 66 68 69 69 70 71 72 73 75 76 78 81 84 86 88 90 93
Wind_Direction
289 289 288 288 287 286 285 284 283 282 280 278 277 276 275 274 273 272 270 269 267 265 264 262 261 259 258 257 257 257 257 255 253 249 247 246 245 245 245 245 243 242 242 241 242 241 241 240 240 241 241 241 241 241 241 242 244 245 246 245 244 243 243 244 245 246 247 247 247 246 244 244 244 244 244 244 244 245 245 246 247 248 248 248 248
289 289 288 288 287 287 286 285 284 283 282 280 278 277 275 273 272 271 270 268 266 264 262 261 259 258 257 255 254 254 255 255 254 252 249 246 245 244 244 244 244 243 242 241 241 242 242 241 241 241 241 241 242 242 242 242 243 244 245 245 245 244 243 243 244 245 245 246 246 246 246 245 245 245 245 245 245 244 245 245 246 247 248 248 248
290 290 289 288 288 287 286 285 284 283 282 281 280 278 276 275 273 271 270 268 267 265 262 260 258 257 255 254 253 252 252 252 253 253 251 248 246 244 243 243 243 243 242 242 241 241 242 242 241 241 241 241 241 241 242 242 243 244 245 246 245 244 244 243 243 244 244 245 245 245 245 246 246 246 246 246 246 246 245 245 245 246 247 248 249
291 290 290 289 288 287 286 285 284 283 282 281 280 279 277 276 274 272 270 268 267 265 263 261 258 256 255 253 252 251 250 250 250 251 251 250 248 245 244 243 242 242 242 242 241 241 241 242 242 242 242 242 241 241 241 242 243 244 245 246 246 245 245 244 244 244 244 244 244 244 244 244 245 246 246 246 246 246 247 246 246 246 247 248 249
291 291 290 290 289 288 287 286 285 284 283 281 280 279 277 276 274 272 269 267 266 264 263 261 259 257 254 253 252 250 249 248 248 248 248 249 249 247 245 243 242 242 242 242 242 241 241 241 242 242 242 243 242 241 241 242 242 243 244 245 246 246 245 245 245 244 244 244 245 245 244 244 244 244 245 246 246 246 247 248 248 248 247 247 248
293 292 292 291 291 290 289 288 287 286 285 283 281 279 277 276 274 271 269 267 265 263 262 261 259 258 255 253 251 250 249 248 247 246 246 246 247 247 246 245 243 241 241 241 242 241 241 241 241 242 242 243 243 242 242 242 242 243 243 244 245 246 246 245 245 245 244 244 245 245 245 244 243 243 243 244 245 246 246 247 247 248 248 248 247
295 295 294 293 292 292 291 290 289 288 287 286 284 282 280 277 275 273 270 268 265 263 261 260 259 257 256 254 252 250 249 248 247 245 245 245 245 245 245 245 244 243 241 240 241 241 241 241 241 241 241 242 243 243 242 242 243 243 243 243 244 245 246 246 246 246 245 245 244 244 245 245 244 244 243 243 243 244 245 246 246 247 247 248 247
297 296 295 294 294 293 292 291 290 288 287 286 285 283 281 279 277 274 272 270 267 264 262 260 258 257 256 254 253 251 249 248 247 246 244 244 244 244 244 244 244 244 242 241 240 241 241 241 241 241 241 242 243 243 242 242 242 243 243 243 244 244 245 246 246 246 246 246 245 244 244 244 244 244 244 243 243 243 244 245 246 246 247 247 247
297 296 295 295 294 293 292 291 290 289 288 286 285 283 281 279 277 275 272 270 268 266 264 261 259 257 256 254 253 252 250 248 247 246 245 244 243 243 243 243 243 243 243 242 241 240 240 240 241 241 241 241 242 242 242 242 242 243 243 244 244 244 245 245 246 246 246 246 246 245 244 243 243 243 244 244 243 243 243 244 245 245 246 246 246
297 296 296 295 294 294 293 292 291 290 289 288 286 284 282 280 278 275 273 270 268 267 265 263 261 258 255 254 253 252 251 249 247 246 245 243 243 242 242 242 242 242 242 243 242 241 240 240 240 241 241 242 242 242 241 242 242 242 243 243 244 244 245 245 246 246 246 246 246 246 245 244 243 243 243 243 243 243 243 243 243 244 244 245 245
297 297 296 296 295 294 294 293 292 291 290 289 287 285 283 281 279 277 275 272 269 266 264 262 261 259 257 254 252 251 251 250 248 246 245 244 242 242 241 241 241 241 241 242 242 243 242 240 239 240 241 241 242 242 241 241 241 241 242 243 243 244 244 245 245 246 247 246 246 246 246 245 244 243 243 242 242 242 243 243 243 242 243 244 244
298 298 297 297 296 296 295 295 294 293 292 291 289 287 284 282 280 277 275 273 270 266 263 261 260 259 257 255 253 251 250 249 249 247 246 244 243 242 241 241 240 240 240 240 241 242 242 242 240 239 240 240 241 243 243 241 240 241 241 242 243 243 244 244 245 245 246 247 247 246 246 246 245 243 243 242 242 242 242 243 243 243 242 243 243
299 299 299 298 298 297 296 295 294 294 293 291 290 288 285 282 280 277 275 273 271 269 265 262 260 258 257 255 254 252 250 249 248 248 247 245 244 243 241 240 240 240 239 239 239 240 241 242 241 240 240 240 240 241 243 243 241 240 240 241 242 243 243 244 244 244 245 246 247 247 247 246 245 244 243 242 242 242 242 242 243 243 243 243 243
300 300 300 299 298 296 295 294 294 293 292 291 289 288 286 284 281 278 275 273 272 270 268 265 262 260 258 256 254 253 251 250 248 247 247 246 245 244 242 241 240 240 239 239 238 239 240 241 241 241 241 240 240 240 241 243 242 241 240 240 241 242 242 243 244 244 244 245 246 247 247 247 246 245 244 243 243 242 242 242 242 242 243 243 243
301 300 300 298 297 296 295 294 294 293 292 291 289 288 286 284 282 279 276 274 271 270 269 267 264 261 259 257 255 253 252 251 249 248 247 246 246 245 244 243 241 240 239 239 238 238 238 239 240 240 241 241 241 240 240 241 242 242 240 240 240 241 242 242 243 244 244 244 244 245 247 247 247 246 245 244 244 243 243 242 241 242 242 242 243
302 301 300 299 298 297 296 295 294 294 293 292 290 289 287 285 282 280 277 275 272 270 268 267 265 263 261 259 257 255 253 252 251 249 248 247 246 246 245 244 243 241 240 239 239 238 238 238 238 239 240 240 241 241 241 241 241 241 241 239 239 240 241 242 242 243 244 244 244 244 245 246 247 247 246 245 244 244 244 243 242 241 241 241 242
303 303 302 301 301 300 299 298 297 296 294 293 291 290 288 285 283 280 278 275 273 271 268 267 265 264 262 260 258 256 254 253 251 250 249 248 246 246 245 245 244 243 242 240 239 239 238 238 238 238 239 240 240 241 241 241 242 242 241 240 239 239 240 241 241 242 243 244 243 244 244 245 246 247 247 246 245 244 244 244 244 243 241 241 241
305 305 304 304 304 303 302 301 299 298 297 295 293 291 289 287 284 281 279 276 274 272 270 267 265 264 263 261 260 258 256 254 252 251 250 249 247 246 246 245 245 244 243 242 241 240 239 239 238 238 238 239 239 240 241 241 242 242 242 241 239 239 239 240 241 241 242 243 244 243 244 244 245 246 246 247 246 245 244 244 244 244 243 242 241
307 307 307 307 306 306 305 303 302 300 299 297 295 293 291 289 286 284 281 278 275 272 270 268 266 264 263 262 260 259 258 256 254 251 250 249 249 247 246 246 245 245 245 244 243 242 241 240 239 239 238 238 239 239 240 241 242 243 243 242 241 240 240 239 240 240 241 242 243 244 244 244 244 245 246 246 246 246 245 245 244 244 244 243 242
309 310 310 310 309 308 307 306 304 302 301 299 297 295 293 291 289 286 283 280 277 274 271 269 267 265 264 262 261 259 258 257 256 253 251 250 249 249 247 247 246 246 245 245 244 244 243 242 241 240 240 239 239 239 239 240 241 242 243 242 242 241 241 240 239 239 240 241 242 243 244 244 244 244 245 245 246 246 246 246 245 244 244 244 243
312 312 312 312 312 311 310 309 307 305 302 300 298 296 295 293 291 288 286 283 280 277 274 271 268 267 265 263 261 260 259 258 257 255 253 251 250 249 248 248 247 246 246 245 245 245 244 244 243 242 241 240 240 240 240 240 240 241 242 242 242 242 242 242 241 240 239 239 241 242 243 244 245 245 245 245 245 246 246 246 246 246 245 244 244
313 313 313 313 313 313 312 311 309 307 305 302 300 299 297 295 293 291 288 285 282 280 278 275 271 268 266 265 263 261 260 258 257 256 255 253 251 250 249 248 248 247 246 245 245 245 245 245 244 243 243 242 241 241 241 240 240 241 241 242 242 242 242 242 242 241 240 239 239 241 242 243 244 244 245 245 245 245 246 246 247 247 247 246 245
314 314 314 314 314 314 313 312 311 309 307 304 302 300 298 296 295 292 290 288 285 282 280 278 275 272 268 266 264 263 261 260 258 257 256 255 253 251 250 249 248 248 247 246 245 245 245 245 245 245 244 243 243 242 242 242 241 241 241 242 242 242 242 242 242 242 241 240 239 239 240 241 242 243 244 245 245 245 245 246 247 247 247 247 246
314 314 314 315 314 314 313 312 311 310 308 306 303 301 299 297 295 293 291 289 287 284 282 279 277 275 272 268 266 264 262 261 259 258 256 255 254 253 251 250 248 248 248 247 246 245 245 245 245 245 245 245 244 244 243 243 242 242 242 242 242 242 242 243 243 242 242 242 241 240 240 240 241 242 243 244 244 245 245 245 246 247 247 247 247
314 315 315 315 314 313 312 312 311 310 309 307 305 303 300 298 296 294 291 289 288 286 284 281 278 276 274 271 268 266 263 262 260 259 257 256 255 254 252 251 249 248 248 247 247 246 246 245 245 245 245 245 245 244 244 244 243 243 243 242 242 242 242 243 243 243 243 243 242 241 241 240 240 240 241 242 243 244 245 245 245 246 247 247 248
315 315 315 314 313 312 312 311 311 310 310 308 307 304 302 299 296 294 291 289 287 285 284 282 280 278 275 273 271 268 266 263 261 260 259 257 256 254 253 252 251 250 248 247 247 247 246 246 245 245 244 244 245 245 244 244 244 244 244 244 243 243 243 243 244 244 244 244 243 243 242 242 241 240 240 240 241 242 243 244 244 245 246 246 247
315 315 314 313 313 312 311 311 311 310 310 309 308 305 303 300 297 294 291 289 287 285 283 282 280 279 277 275 272 270 268 265 263 260 259 258 257 256 254 253 252 251 250 248 247 247 247 246 246 245 245 244 244 244 244 244 244 244 244 244 244 244 244 244 244 245 245 245 245 244 244 244 243 242 241 240 240 240 241 243 243 244 244 245 246
316 315 314 313 313 312 312 311 310 310 310 309 308 306 304 301 298 296 294 291 289 286 284 282 280 279 278 276 273 271 268 267 264 262 260 259 258 257 255 254 253 252 251 250 248 247 247 247 246 246 245 244 244 244 244 244 245 244 244 244 244 244 244 244 244 245 245 245 246 245 245 246 245 244 243 241 240 239 240 241 242 243 244 244 245
316 316 315 315 314 313 312 311 311 310 311 310 309 308 305 303 300 298 296 294 291 289 286 283 281 279 277 276 274 271 269 267 265 264 261 260 258 257 256 255 254 253 251 251 250 249 247 247 246 246 246 245 245 244 244 244 244 245 245 245 244 244 244 245 245 245 245 245 246 246 246 246 247 247 246 244 242 241 239 239 240 241 243 244 245
317 317 316 315 315 314 313 312 312 312 312 312 311 309 307 304 302 300 299 297 294 291 288 285 282 279 277 276 274 272 270 268 266 264 263 261 259 257 256 255 254 253 252 252 251 250 249 248 247 246 246 245 245 245 244 244 244 244 244 244 244 244 244 245 245 245 246 246 246 246 246 246 247 248 248 248 247 244 242 240 239 239 240 242 244
318 318 317 316 315 315 314 314 314 314 314 314 313 312 309 307 305 303 301 299 297 294 292 289 285 282 279 276 274 272 270 268 267 265 264 262 260 259 257 256 254 253 253 252 252 251 251 249 248 247 246 246 245 245 245 245 245 244 244 244 244 244 244 244 244 245 246 247 247 247 247 247 247 248 249 249 250 249 247 244 241 239 239 240 241
319 318 317 317 316 315 315 315 315 315 315 315 314 313 311 309 306 304 303 301 299 296 294 292 289 286 282 278 275 272 270 267 266 265 264 262 261 260 259 258 256 255 254 253 252 252 251 251 250 249 248 247 246 245 245 245 245 245 245 245 244 244 244 244 244 244 245 245 246 247 247 247 247 248 249 249 250 250 250 248 246 243 241 240 239
319 318 318 317 317 316 316 316 316 315 315 315 314 313 311 309 307 305 304 302 300 298 296 293 291 288 285 282 278 274 271 268 266 264 263 262 261 260 260 259 258 257 256 254 253 252 252 251 251 250 249 248 247 246 245 245 245 245 245 245 245 245 244 244 244 244 244 244 245 245 246 246 246 247 248 249 250 250 251 250 249 247 245 242 241
319 318 318 317 317 317 316 316 315 315 315 315 314 313 312 310 308 306 304 303 301 298 296 294 292 289 286 283 280 277 274 271 268 265 263 262 261 261 260 260 259 258 257 256 255 254 253 252 251 251 250 250 249 248 247 246 245 245 245 245 245 245 245 245 244 244 244 244 244 244 245 245 245 245 245 246 248 249 250 250 250 249 247 246 244
320 319 318 318 318 317 317 316 316 316 316 315 315 314 312 311 309 307 305 303 301 299 297 294 291 289 286 283 280 278 275 273 270 268 265 263 262 261 260 260 259 258 257 256 256 255 254 253 252 251 251 250 250 250 249 248 247 246 246 245 245 245 245 245 244 244 244 244 244 244 244 244 244 244 244 244 245 246 248 249 249 249 248 247 246
321 320 319 318 318 318 317 317 316 316 316 316 315 314 313 311 309 308 306 304 302 300 297 295 292 289 287 284 281 278 276 274 271 269 267 266 263 262 261 260 259 258 257 256 255 255 254 254 253 252 252 252 251 251 250 249 248 247 247 246 246 245 245 245 244 244 244 244 244 244 244 244 244 244 244 244 243 244 245 246 247 248 248 248 247
321 320 319 319 319 318 317 317 317 317 316 316 315 314 313 311 310 308 307 305 303 302 299 297 294 291 289 286 283 280 277 275 272 270 268 267 265 263 261 260 258 258 257 257 256 255 254 254 253 253 253 252 252 252 251 250 250 249 248 247 247 246 245 245 244 244 244 244 244 244 244 244 243 244 244 244 244 243 243 243 244 245 246 246 247
321 320 320 319 319 318 317 318 317 317 317 316 315 314 313 312 310 309 308 306 305 303 301 298 296 294 291 288 285 282 280 277 274 272 269 267 266 264 263 260 258 257 257 256 256 256 255 254 254 254 253 252 252 252 252 252 251 250 249 249 248 248 247 246 245 244 244 244 244 244 244 243 243 242 243 243 244 244 243 242 242 243 244 245 245
321 321 321 320 320 319 318 318 318 317 317 316 316 315 314 313 311 310 309 307 306 304 301 299 297 295 292 290 287 285 282 280 277 275 272 269 267 265 263 261 259 258 257 256 255 255 255 255 255 254 254 253 252 252 252 252 252 252 251 250 249 249 248 248 247 245 244 244 244 244 244 243 242 242 241 242 242 243 243 242 241 241 242 242 243
322 322 322 321 320 319 319 319 318 318 318 317 317 316 315 314 312 311 310 308 306 304 302 300 298 295 293 291 288 286 284 282 280 277 275 272 270 267 265 262 260 258 257 256 255 255 255 255 255 254 254 253 253 253 253 252 252 252 251 250 250 249 249 248 248 247 246 245 244 244 243 243 242 242 241 241 241 241 242 242 242 241 240 240 241
323 322 322 322 321 320 319 319 319 318 319 318 318 317 316 314 313 312 311 309 307 305 303 301 299 296 293 291 289 287 285 283 281 279 277 275 273 270 268 265 262 260 258 257 256 255 255 255 254 254 253 253 253 253 253 253 252 252 252 251 250 250 249 249 248 247 247 246 245 245 244 243 242 241 241 241 241 240 241 241 241 241 240 240 240
323 323 323 322 321 320 320 320 319 319 319 318 318 317 316 314 313 312 311 310 308 306 304 303 301 297 294 292 290 288 287 285 283 281 279 277 275 273 271 268 265 262 260 259 258 257 256 256 255 253 253 252 252 253 253 253 253 252 252 252 251 251 251 250 249 248 246 245 245 245 245 244 243 241 241 241 241 241 241 241 241 241 241 240 239
323 323 323 322 321 320 320 320 319 319 319 319 319 318 316 314 313 313 312 310 308 307 306 304 302 299 296 294 291 290 288 286 284 282 280 279 277 275 273 271 268 266 263 261 259 258 258 257 256 254 253 252 251 251 252 253 253 253 252 252 251 251 251 251 251 250 248 246 245 245 245 245 245 243 241 241 241 241 241 240 240 240 240 240 240
323 323 323 322 321 320 320 320 320 320 320 320 319 318 316 314 314 313 312 311 309 308 306 305 303 301 298 296 293 291 289 287 285 283 282 280 278 276 274 273 271 268 266 263 261 260 259 258 257 256 254 253 251 251 251 252 253 253 252 252 251 250 251 251 251 251 251 249 248 246 245 245 245 245 243 241 240 241 242 241 239 238 238 239 239
324 323 323 322 321 320 320 320 320 320 320 320 319 318 316 315 314 314 313 311 309 308 307 305 303 302 300 298 295 293 291 289 287 284 283 281 279 277 275 273 272 270 268 266 263 261 260 260 258 257 255 254 253 252 252 251 252 252 252 251 250 250 250 250 251 251 251 251 250 249 247 246 245 244 244 243 241 241 241 241 240 238 237 237 238
324 323 322 322 321 321 321 321 321 321 321 320 319 318 316 315 314 314 313 311 309 308 307 305 304 302 301 299 297 295 292 290 288 286 284 282 280 278 276 274 272 271 269 267 266 263 262 261 260 258 257 255 254 254 253 253 252 251 251 250 250 249 249 249 250 251 251 251 250 249 248 247 246 244 243 243 242 241 240 240 240 238 236 236 236
324 323 323 322 322 322 321 321 321 321 320 320 319 318 317 315 315 314 313 311 310 308 307 306 304 303 302 300 298 296 293 291 289 287 285 283 281 279 277 275 273 271 269 268 267 265 264 262 261 259 258 257 256 255 254 254 253 252 251 250 249 249 249 249 249 250 250 251 250 250 249 248 247 245 243 242 241 241 239 238 239 238 237 235 235
323 323 323 322 322 322 322 322 321 320 320 319 319 319 317 316 315 315 313 312 310 309 308 306 305 303 302 300 299 297 294 292 290 287 285 284 282 280 278 276 274 271 269 268 267 266 264 263 262 261 260 259 258 256 254 254 254 253 252 251 249 249 249 249 249 250 250 250 250 249 249 248 247 246 244 242 241 240 239 238 237 237 237 236 235
323 323 323 322 322 322 322 321 321 320 319 319 319 319 317 316 315 315 314 312 311 309 308 306 305 303 302 300 299 297 295 293 290 288 286 284 282 281 279 277 275 273 270 268 267 266 265 264 263 263 262 260 259 257 255 255 254 254 253 252 250 249 249 249 249 249 249 249 249 249 249 248 247 246 244 243 241 240 239 238 237 236 236 236 235
323 323 323 322 322 322 322 321 320 319 319 319 319 318 317 316 315 315 314 313 311 310 308 307 305 303 302 301 299 298 296 294 292 289 287 284 282 281 280 278 276 274 272 270 267 265 265 264 264 264 263 262 260 258 257 256 255 254 254 253 251 250 250 249 249 248 249 249 249 249 248 247 247 246 244 242 241 240 239 238 238 237 236 236 236
323 323 323 322 322 322 321 321 320 319 319 318 318 318 317 316 316 315 314 313 312 310 309 307 305 304 302 301 299 298 296 294 292 290 288 285 283 280 279 279 277 274 272 271 270 267 265 264 264 265 264 262 261 259 258 257 256 256 255 254 253 251 250 249 249 248 248 248 248 248 247 247 246 246 244 242 241 240 238 238 238 237 237 236 236